Regional Weather Roundup
Issued by NWS Sioux Falls, SD

Home | Current Version | Previous Version | Text Only | Print | Product List | Glossary On
Versions: 1 2 3 4 5 6 7 8 9 10 11 12 13 14 15 16 17 18 19 20 21 22 23 24 25 26 27 28 29 30 31 32 33 34 35 36 37 38 39 40 41 42 43 44 45 46 47 48 49 50
000
ASUS43 KFSD 222210
RWRFSD

WEATHER ROUNDUP FOR SE SOUTH DAKOTA/SW MINNESOTA/NW IOWA
NATIONAL WEATHER SERVICE SIOUX FALLS SD
500 PM CDT WED OCT 22 2014

NOTE: "FAIR" INDICATES FEW OR NO CLOUDS BELOW 12,000 FEET WITH NO
SIGNIFICANT WEATHER AND OR OBSTRUCTIONS TO VISIBILITY.


SDZ038>040-050-052>070-222300-
SOUTHEAST SOUTH DAKOTA

CITY           SKY/WX    TMP DP  RH WIND       PRES   REMARKS
CHAMBERLAIN    PTSUNNY   59  50  72 SW3       29.96F
HURON          CLOUDY    57  53  86 W8        29.94S
MADISON        LGT RAIN  55  55 100 SW7       29.95S
MITCHELL       CLOUDY    58  55  90 W10       29.96R
SIOUX FALLS    RAIN      58  56  93 S5        29.95R FOG
WINNER         FAIR      64  45  49 VRB5      29.97F
YANKTON        CLOUDY    57  55  94 CALM      29.98R
$$

MNZ071-072-080-081-089-090-097-098-222300-
SOUTHWEST MINNESOTA

CITY           SKY/WX    TMP DP  RH WIND       PRES   REMARKS
FAIRMONT       CLOUDY    63  43  48 SE24      30.02F
JACKSON        PTSUNNY   66  45  45 S20G26    29.99F
LUVERNE        LGT RAIN  64  55  72 SW12      29.95R
MARSHALL       CLOUDY    73  50  43 SW16      29.90S
MONTEVIDEO     CLOUDY    68  48  49 S9        29.92S
PIPESTONE      RAIN      66  54  63 W14       29.96R
REDWOOD FALLS  CLOUDY    66  46  48 SE17G25   29.94F
TRACY          CLOUDY    71  49  46 S14G21    29.92S
WINDOM         CLOUDY    66  46  48 SE24G30   29.96F
WORTHINGTON    PTSUNNY   70  48  46 S13G21    29.96S
$$

IAZ001>003-012>014-020>022-031-032-NEZ013-014-SDZ071-222300-
NORTHWEST IOWA

CITY           SKY/WX    TMP DP  RH WIND       PRES   REMARKS
CHEROKEE       PTSUNNY   71  51  49 S18G25    29.97F
DENISON        PTSUNNY   70  52  52 S13G23    29.99F
ESTHERVILLE    PTSUNNY   65  46  50 S23G32    30.00F
LE MARS        CLOUDY    73  54  49 S15G22    29.94S
ORANGE CITY    PTSUNNY   72  50  46 S10G22    29.95R
SHELDON        PTSUNNY   72  52  49 S18G32    29.94R
SIOUX CITY     CLOUDY    73  53  49 S14G24    29.94F
SPENCER        PTSUNNY   69  48  47 S22G31    29.98F
STORM LAKE     PTSUNNY   68  50  52 S21G29    30.01S
$$

ABBREVIATIONS USED IN REMARKS
   TC - TEMPERATURE IN CELSIUS
  WCI - WIND CHILL INDEX
   HX - HEAT INDEX
  VSB - VISIBILITY




USA.gov is the U.S. government's official web portal to all federal, state and local government web resources and services.